Location: Unspecified
(35.6961°N, 0.0000°E)
Time: 13:33:52
(UTC+00:00)

Vanguard 2 Rocket - Pass Details

Date: 02 June 2019
Orbit: 555 x 3326 km, 32.9° (Epoch: 24 June)

Event Time Altitude Azimuth Distance (km) Brightness Sun altitude
Rises 22:35:15 0° 177° (S) 5,802 - -28.8°
Reaches altitude 10° 22:41:48 10° 156° (SSE) 5,361 - -29.3°
Maximum altitude 22:49:19 15° 128° (SE) 5,460 - -29.8°
Exits shadow 22:53:30 13° 114° (ESE) 5,757 10.6 -30.1°
Drops below altitude 10° 22:57:44 10° 102° (ESE) 6,186 10.9 -30.3°
Sets 23:06:24 0° 83° (E) 7,315 11.5 -30.8°
